Miscellaneous Local Product
Issued by NWS North Platte, NE

Home | Current Version | Previous Version | Text Only | Print | Product List | Glossary On
Versions: 1 2 3 4 5 6 7 8 9 10 11 12 13 14 15 16 17 18 19 20 21 22 23 24 25 26 27 28 29 30 31 32 33 34 35 36 37 38 39 40 41 42 43 44 45 46 47 48 49 50
000
AXUS43 KLBF 280410
MISLBF


WESTERN AND NORTH CENTRAL NEBRASKA HOURLY WEATHER ROUNDUP
NATIONAL WEATHER SERVICE NORTH PLATTE NE
1100 PM CDT WED MAY 27 2015

***STATIONS NOT REPORTING VARIABLES SUCH AS SKY/WEATHER OR
PRESSURE ARE PROVIDED BY THE NEBRASKA DEPARTMENT OF
ROADS...RAWS...AND APRS NETWORKS...AND ARE NOT UNDER
NATIONAL WEATHER SERVICE QUALITY CONTROL***

...OBSERVATIONS IN AND NEAR THE EASTERN PANHANDLE OF NEBRASKA...

CITY           SKY/WX    TMP DP  RH WIND       PRES   REMARKS
PINE RIDGE     PTCLDY    62  53  72 S18       29.97R
CHADRON        CLEAR     61  55  81 S12       29.97R
ALLIANCE       CLEAR     59  55  87 S17       30.02R
SIDNEY         PTCLDY    57  50  77 SE15      30.06S
WHITECLAY        N/A     62  53  73 S15         N/A
BIG SPRINGS      N/A     59  54  84 SE16        N/A
$$

...OBSERVATIONS IN NORTH CENTRAL NEBRASKA...

CITY           SKY/WX    TMP DP  RH WIND       PRES   REMARKS
VALENTINE      CLOUDY    63  53  70 SW12      29.99R
THEDFORD       CLOUDY    60  56  88 SE5       30.04R
AINSWORTH      CLOUDY    65  55  70 S8        30.03R
O`NEILL        MOCLDY    63  55  74 SE5       30.04S
ORD            CLOUDY    67  55  65 S10       30.03R
BROKEN BOW     CLOUDY    64  58  80 S6        30.05R
BROWNLEE         N/A     64  57  78 SE10        N/A
VALENTINE NWR    N/A     58  57  96 S6G16       N/A
SPRINGVIEW       N/A     65  55  70 SE3         N/A
HALSEY           N/A     63  54  73 CALM        N/A
BREWSTER         N/A     65  58  76 S5          N/A
ROSE             N/A     67  58  72 E8          N/A
NEWPORT          N/A     63  55  76 S7          N/A
SARGENT          N/A     63  57  82 CALM        N/A
COMSTOCK         N/A     70  64  80 S9          N/A
EWING            N/A     66  57  73 CALM        N/A
$$

...OBSERVATIONS IN SOUTHWEST NEBRASKA AND FAR NORTHEAST COLORADO...

CITY           SKY/WX    TMP DP  RH WIND       PRES   REMARKS
WRAY           FAIR      59  54  81 E15       30.06S
HOLYOKE        FAIR      59  52  77 SE15      30.06R
IMPERIAL       PTCLDY    57  53  86 SE12      30.06S
OGALLALA       PTCLDY    60  56  85 S15G21    30.05R
NORTH PLATTE   PTCLDY    64  57  78 S12       30.04R
MCCOOK         CLOUDY    64  59  83 S10G16    30.04S
LEXINGTON      CLOUDY    66  60  81 S17G23    30.02R
PAXTON           N/A     61  58  88 S14         N/A
GOTHENBURG       N/A     66  56  71 S8          N/A
CALLAWAY         N/A     64  60  87 S12         N/A
$$

...NORTH PLATTE AREA...

CITY           SKY/WX    TMP DP  RH WIND       PRES   REMARKS
AIRPORT        PTCLDY    64  57  78 S12       30.04R
DOWNTOWN         N/A     63  58  83 S8G16       N/A
$$

...SOME WEATHER OBSERVATIONS FROM AROUND THE REGION...

CITY           SKY/WX    TMP DP  RH WIND       PRES   REMARKS
DENVER         MOCLDY    64  44  48 S13       30.04R
LARAMIE        CLOUDY    51  37  58 SW12      30.15R
CHEYENNE       LGT RAIN  55  49  80 SE7       30.12R
SCOTTSBLUFF    PTCLDY    61  56  83 S7        30.04R
RAPID CITY     CLEAR     61  52  72 W5        29.93R
PIERRE         LGT RAIN  61  59  93 E7        29.95S
WINNER         FAIR      70  52  52 S14       29.97R
SIOUX FALLS    PTCLDY    67  51  56 S7        30.02R
OMAHA          CLOUDY    67  55  65 SE7       30.07R
GRAND ISLAND   CLOUDY    68  57  68 S9        30.07R
KANSAS CITY    CLOUDY    66  56  70 S6        30.10R
WICHITA        CLOUDY    74  67  78 SE6       30.04S
HAYS           CLOUDY    64  54  68 E6        30.05R
LIBERAL        CLOUDY    63  54  72 E15       30.07R
GOODLAND       LGT RAIN  59  56  89 E15       30.09R
$$



USA.gov is the U.S. government's official web portal to all federal, state and local government web resources and services.